Regional Weather Roundup
Issued by NWS

Home | Current Version | Previous Version | Text Only | Print | Product List | Glossary On
Versions: 1 2 3 4 5 6 7 8 9 10 11 12 13 14 15 16 17 18 19 20 21 22 23 24 25 26 27 28 29 30 31 32 33 34 35 36 37 38 39 40 41 42 43 44 45 46 47 48 49 50
000
ASUS43 KOAX 251702
RWRNE

WEATHER ROUNDUP FOR NEBRASKA
NATIONAL WEATHER SERVICE OMAHA NE
1200 PM CDT TUE JUL 25 2017

NOTES: SATELLITE DATA IS BEING USED TO AUGMENT CLOUD COVER ABOVE
       12000 FEET.
       "FAIR" INDICATES FEW OR NO CLOUDS BELOW 12,000 FEET WITH NO
       SIGNIFICANT WEATHER AND/OR OBSTRUCTIONS TO VISIBILITY.


NEZ001>004-019>022-054>056-251800-
NEBRASKA PANHANDLE

CITY           SKY/WX    TMP DP  RH WIND       PRES   REMARKS
SCOTTSBLUFF    SUNNY     92  49  22 NW12      29.98S
ALLIANCE       MOSUNNY   90  58  33 SW5       29.98S
CHADRON        CLOUDY    86  52  30 NW6       29.96R
GORDON         FAIR      87  64  46 SW8       29.96R
KIMBALL        MOSUNNY   93  53  25 N5        30.06S HX  90
SIDNEY         SUNNY     91  58  32 SE10      30.02S HX  90
$$

NEZ057>060-069>072-079>082-251800-
SOUTHWEST NEBRASKA

CITY           SKY/WX    TMP DP  RH WIND       PRES   REMARKS
NORTH PLATTE   SUNNY     93  67  42 S13       29.96F HX  96
IMPERIAL       MOSUNNY   93  60  33 S13G22    29.98S HX  93
LEXINGTON      PTSUNNY   85  70  60 S16       29.99S HX  90
MCCOOK         SUNNY     94  67  41 S17G26    29.97F HX  97
OGALLALA       SUNNY     91  64  40 S13       29.97F HX  93
$$

NEZ005>010-023>029-035>040-094-251800-
NORTH CENTRAL NEBRASKA

CITY           SKY/WX    TMP DP  RH WIND       PRES   REMARKS
VALENTINE      SUNNY     98  59  27 SW9       29.90F HX  98
AINSWORTH      SUNNY     96  64  35 S14G21    29.92S HX  97
BROKEN BOW     MOSUNNY   93  67  42 S18G28    29.98S HX  96
O`NEILL        SUNNY     92  68  46 S20G28    29.92F HX  96
ORD            SUNNY     92  67  43 S18       29.95S HX  95
THEDFORD       CLOUDY    92  64  39 SW15      29.96S HX  93
$$

NEZ041-046>049-061>064-073>077-083>087-251800-
SOUTH CENTRAL NEBRASKA

CITY           SKY/WX    TMP DP  RH WIND       PRES   REMARKS
GRAND ISLAND   SUNNY     90  67  46 S18       29.99F HX  93
AURORA         SUNNY     89  67  49 S18G25    30.00F HX  92
HASTINGS       SUNNY     89  67  47 S17G24    30.01F HX  92
HEBRON         SUNNY     90  71  52 S15       30.01F HX  96
HOLDREGE       MOSUNNY   86  69  56 S14       30.01S HX  90
KEARNEY        SUNNY     89  70  53 S20       30.00S HX  94
YORK           SUNNY     86  73  66 SW15      30.01S HX  93
$$

NEZ011>018-030>034-042>045-251800-
NORTHEAST NEBRASKA

CITY           SKY/WX    TMP DP  RH WIND       PRES   REMARKS
NORFOLK        SUNNY     92  66  42 S17G29    29.96S HX  94
ALBION         SUNNY     93  68  42 SW13G20   29.97S HX  97
BLAIR          SUNNY     85  73  65 S9        30.01S HX  92
COLUMBUS       SUNNY     90  70  51 S21       29.98F HX  95
FREMONT        SUNNY     87  72  60 SE13      30.00S HX  94
TEKAMAH        SUNNY     87  72  60 S13       29.98S HX  93
WAYNE          SUNNY     91  72  53 S15       29.96S HX  98
$$

NEZ050>053-065>068-078-088>093-251800-
SOUTHEAST NEBRASKA

CITY           SKY/WX    TMP DP  RH WIND       PRES   REMARKS
LINCOLN        SUNNY     91  72  53 SW13      30.00S HX  98
OMAHA EPPLEY   MOSUNNY   87  71  58 S15       30.00F HX  93
BEATRICE       SUNNY     91  72  52 SW13G21   30.01F HX  98
FALLS CITY     SUNNY     89  73  59 S12       30.03S HX  97
NEBRASKA CITY  SUNNY     86  77  75 SE9       30.03S HX  96
PLATTSMOUTH    SUNNY     85  72  65 S9        30.03S HX  91
$$

NEZ044-045-051>053-067-251800-
OMAHA AREA

CITY           SKY/WX    TMP DP  RH WIND       PRES   REMARKS
OMAHA EPPLEY   MOSUNNY   87  71  58 S15       30.00F HX  93
BLAIR          SUNNY     85  73  65 S9        30.01S HX  92
FREMONT        SUNNY     87  72  60 SE13      30.00S HX  94
MILLARD        SUNNY     88  75  65 SE12      30.01S HX  98
OFFUTT AFB     SUNNY     87  72  60 SE12      30.01S HX  93
PLATTSMOUTH    SUNNY     85  72  65 S9        30.03S HX  91
WAHOO          FAIR      88  72  58 S9        30.00S HX  95
$$




USA.gov is the U.S. government's official web portal to all federal, state and local government web resources and services.